#timestamp,LO_Frequency,Hit,Temp,Hum 
1478268015.4,286047001.1,N,0.0,0.0
1478268035.2,286047000.9,N,0.0,0.0
1478268055.1,286046998.2,N,0.0,0.0
1478268056.0,286046998.2,N,0.0,0.0
1478268075.8,286046999.7,N,0.0,0.0
1478268095.6,286046999.0,N,0.0,0.0
1478268115.5,286046996.5,N,0.0,0.0
1478268135.3,286046999.2,N,0.0,0.0
1478268155.1,286046999.7,N,0.0,0.0
1478268175.9,286046999.6,N,0.0,0.0
1478268195.7,286046998.2,N,0.0,0.0
1478268215.5,286047001.9,N,0.0,0.0
1478268235.3,286047002.1,N,0.0,0.0
1478268255.2,286046997.5,N,0.0,0.0
1478268275.0,286046995.3,Y,0.0,0.0
1478268275.9,286046995.3,N,0.0,0.0
1478268295.8,286046996.9,N,0.0,0.0
1478268315.6,286046998.5,N,0.0,0.0
1478268335.4,286046996.5,N,0.0,0.0
1478268355.2,286046998.3,N,0.0,0.0
1478268375.1,286046999.0,N,0.0,0.0
1478268376.0,286046999.0,N,0.0,0.0
1478268395.8,286047001.1,N,0.0,0.0
1478268415.6,286046998.9,N,0.0,0.0
1478268435.5,286046998.7,N,0.0,0.0
1478268455.3,286046998.2,N,0.0,0.0
1478268475.1,286046999.1,N,0.0,0.0
1478268495.9,286046999.6,N,0.0,0.0
1478268515.7,286046999.0,N,0.0,0.0
1478268535.5,286047000.3,N,0.0,0.0
1478268555.4,286047000.1,N,0.0,0.0
1478268575.2,286047002.5,N,0.0,0.0
1478268595.0,286047001.9,N,0.0,0.0
1478268595.9,286047001.9,N,0.0,0.0
1478268615.8,286047002.5,N,0.0,0.0
1478268635.6,286047000.0,N,0.0,0.0
1478268655.4,286046998.3,N,0.0,0.0
1478268675.3,286046998.9,N,0.0,0.0
1478268695.1,286046999.3,N,0.0,0.0
1478268696.0,286046999.3,N,0.0,0.0
1478268715.8,286046999.0,N,0.0,0.0
1478268735.7,286046997.8,N,0.0,0.0
1478268755.5,286046997.5,N,0.0,0.0
1478268775.3,286046998.9,N,0.0,0.0
1478268795.2,286046999.1,N,0.0,0.0
1478268815.9,286046997.2,N,0.0,0.0
1478268835.7,286046994.9,Y,0.0,0.0
1478268855.6,286046998.0,N,0.0,0.0
1478268875.4,286046997.9,N,0.0,0.0
1478268895.2,286046998.0,N,0.0,0.0
1478268915.1,286046998.7,N,0.0,0.0
1478268916.0,286046998.7,N,0.0,0.0
1478268935.8,286047000.6,N,0.0,0.0
1478268955.6,286047004.2,Y,0.0,0.0
1478268975.5,286047005.0,N,0.0,0.0
1478268995.3,286047002.9,N,0.0,0.0
1478269015.1,286047005.3,N,0.0,0.0
1478269035.9,286047005.7,N,0.0,0.0
1478269055.7,286047005.9,N,0.0,0.0
1478269075.5,286047003.6,N,0.0,0.0
1478269095.3,286047003.6,N,0.0,0.0
1478269115.2,286047003.8,N,0.0,0.0
1478269135.0,286047002.9,N,0.0,0.0
1478269135.9,286047002.9,N,0.0,0.0
1478269155.7,286047001.7,N,0.0,0.0
1478269175.6,286047002.8,N,0.0,0.0
1478269195.4,286047000.5,N,0.0,0.0
1478269215.2,286047000.8,N,0.0,0.0
1478269235.1,286047002.7,N,0.0,0.0
1478269236.0,286047002.7,N,0.0,0.0
1478269255.8,286047004.0,N,0.0,0.0
1478269275.6,286047002.5,N,0.0,0.0
1478269295.5,286047002.5,N,0.0,0.0
1478269315.3,286047001.2,N,0.0,0.0
1478269335.1,286046998.8,N,0.0,0.0
1478269355.9,286046998.4,N,0.0,0.0
1478269375.7,286046998.7,N,0.0,0.0
1478269395.5,286047000.7,N,0.0,0.0
1478269415.4,286047002.5,N,0.0,0.0
1478269435.2,286047000.3,N,0.0,0.0
1478269455.0,286046998.6,N,0.0,0.0
1478269455.9,286046998.6,N,0.0,0.0
1478269475.8,286047000.5,N,0.0,0.0
1478269495.6,286047000.0,N,0.0,0.0
1478269515.4,286046998.6,N,0.0,0.0
1478269535.3,286046998.3,N,0.0,0.0
1478269555.1,286047001.2,N,0.0,0.0
1478269556.0,286047001.2,N,0.0,0.0
1478269575.8,286046999.9,N,0.0,0.0
1478269595.7,286047003.5,N,0.0,0.0
1478269615.5,286047003.6,N,0.0,0.0
1478269635.3,286047002.4,N,0.0,0.0
1478269655.1,286047001.8,N,0.0,0.0
1478269675.9,286047001.8,N,0.0,0.0
1478269695.7,286047002.4,N,0.0,0.0
1478269715.5,286047002.0,N,0.0,0.0
1478269735.4,286047002.1,N,0.0,0.0
1478269755.2,286047001.6,N,0.0,0.0
1478269775.0,286047001.9,N,0.0,0.0
1478269775.9,286047001.9,N,0.0,0.0
1478269795.8,286047000.4,N,0.0,0.0
1478269815.6,286046998.1,N,0.0,0.0
1478269835.4,286046998.1,N,0.0,0.0
1478269855.3,286047000.5,N,0.0,0.0
1478269875.1,286046998.6,N,0.0,0.0
1478269876.0,286046998.6,N,0.0,0.0
1478269895.8,286046996.5,N,0.0,0.0
1478269915.7,286046996.9,N,0.0,0.0
1478269935.5,286047000.8,N,0.0,0.0
1478269955.3,286047000.8,N,0.0,0.0
1478269975.2,286047001.9,N,0.0,0.0
1478269995.9,286047005.3,N,0.0,0.0
1478270015.7,286047001.3,N,0.0,0.0
1478270035.6,286047002.4,N,0.0,0.0
1478270055.4,286047000.2,N,0.0,0.0
1478270075.2,286046998.1,N,0.0,0.0
1478270095.0,286047002.1,N,0.0,0.0
1478270095.9,286047002.1,N,0.0,0.0
1478270115.8,286047002.4,N,0.0,0.0
1478270135.6,286047002.8,N,0.0,0.0
1478270155.4,286047002.3,N,0.0,0.0
1478270175.3,286047002.2,N,0.0,0.0
1478270195.1,286047002.5,N,0.0,0.0
1478270215.8,286046999.7,N,0.0,0.0
1478270235.7,286047001.0,N,0.0,0.0
1478270255.5,286047000.0,N,0.0,0.0
1478270275.3,286047000.0,N,0.0,0.0
1478270295.2,286047000.9,N,0.0,0.0
1478270315.9,286047000.5,N,0.0,0.0
1478270335.7,286047004.3,Y,0.0,0.0
1478270355.6,286047001.7,N,0.0,0.0
1478270375.4,286047002.5,N,0.0,0.0
1478270395.2,286047000.0,N,0.0,0.0
1478270415.1,286046998.4,N,0.0,0.0
1478270416.0,286046998.4,N,0.0,0.0
1478270435.8,286047002.1,N,0.0,0.0
1478270455.6,286046999.9,N,0.0,0.0
1478270475.5,286047002.5,N,0.0,0.0
1478270495.3,286046999.9,N,0.0,0.0
1478270515.1,286047002.8,N,0.0,0.0
1478270535.9,286047001.4,N,0.0,0.0
1478270555.7,286047001.9,N,0.0,0.0
1478270575.5,286047001.9,N,0.0,0.0
1478270595.3,286047000.0,N,0.0,0.0
1478270615.2,286046998.1,N,0.0,0.0
1478270635.0,286047000.9,N,0.0,0.0
1478270635.9,286047000.9,N,0.0,0.0
1478270655.7,286047000.5,N,0.0,0.0
1478270675.6,286046998.4,N,0.0,0.0
1478270695.4,286046999.0,N,0.0,0.0
1478270715.2,286046998.8,N,0.0,0.0
1478270735.1,286046998.7,N,0.0,0.0
1478270736.0,286046998.7,N,0.0,0.0
1478270755.8,286046999.3,N,0.0,0.0
1478270775.6,286047001.8,N,0.0,0.0
1478270795.5,286047003.5,N,0.0,0.0
1478270815.3,286047002.9,N,0.0,0.0
1478270835.1,286047003.4,N,0.0,0.0
1478270855.9,286047004.0,N,0.0,0.0
1478270875.7,286047004.2,N,0.0,0.0
1478270895.5,286047002.2,N,0.0,0.0
1478270915.4,286047000.1,N,0.0,0.0
1478270935.2,286046996.6,N,0.0,0.0
1478270955.0,286046999.2,N,0.0,0.0
1478270955.9,286046999.2,N,0.0,0.0
1478270975.8,286046996.9,N,0.0,0.0
1478270995.6,286046999.0,N,0.0,0.0
1478271015.4,286047001.1,N,0.0,0.0
1478271035.3,286046998.4,N,0.0,0.0
1478271055.1,286046999.9,N,0.0,0.0
1478271056.0,286046999.9,N,0.0,0.0
1478271075.8,286046999.9,N,0.0,0.0
1478271095.7,286047002.5,N,0.0,0.0
1478271115.5,286047002.5,N,0.0,0.0
1478271135.3,286047000.5,N,0.0,0.0
1478271155.1,286047001.5,N,0.0,0.0
1478271175.9,286047004.2,N,0.0,0.0
1478271195.7,286047003.7,N,0.0,0.0
1478271215.5,286047000.6,N,0.0,0.0
1478271235.4,286047001.0,N,0.0,0.0
1478271255.2,286046999.7,N,0.0,0.0
1478271275.0,286046999.7,N,0.0,0.0
1478271275.9,286046999.7,N,0.0,0.0
1478271295.8,286047000.9,N,0.0,0.0
1478271315.6,286047000.3,N,0.0,0.0
1478271335.4,286047000.4,N,0.0,0.0
1478271355.3,286047000.0,N,0.0,0.0
1478271375.1,286046998.2,N,0.0,0.0
1478271376.0,286046998.2,N,0.0,0.0
1478271395.8,286046999.5,N,0.0,0.0
1478271415.7,286046997.2,N,0.0,0.0
1478271435.5,286046998.8,N,0.0,0.0
1478271455.3,286046998.3,N,0.0,0.0
1478271475.2,286046996.7,N,0.0,0.0
1478271495.9,286047000.5,N,0.0,0.0
1478271515.7,286047003.9,Y,0.0,0.0
1478271535.6,286047000.0,N,0.0,0.0
1478271555.4,286047002.8,N,0.0,0.0
1478271575.2,286047001.4,N,0.0,0.0
1478271595.1,286047001.0,N,0.0,0.0
1478271596.0,286047001.0,N,0.0,0.0
